Tracking 35274 objects as of 12-Sep-2026
HD Live streaming from Space Station
objects crossing your sky now

FLOCK 3K 5


FLOCK 3K 5 is no longer on orbit
FLOCK 3K 5 is classified as:


NORAD ID: 43899
Int'l Code: 2018-111Z
Launch date: December 27, 2018
Source: United States (US)
Launch site: VOSTOCHNY COSMODROME (VOSTO)
Decay date: 2023-01-03
Your satellite tracking list
Your tracking list is empty




NASA's NSSDC Master Catalog

Two Line Element Set (TLE):
1 43899U 18111Z   23002.90879772  .09974358  24373-5  15559-2 0  9997
2 43899  97.1476 257.8044 0007503 211.3195 148.7656 16.33963501224479
Source of the keplerian elements: AFSPC